Météo par heure à Ababkovo

Ce jour, 14 Avril, Mercredi

Heure Température Précipitation Vent Pression Humidité
00:00 +10°C° 0 mm 2 m/s 742 mmHg 78%
01:00 +10°C° 0 mm 2 m/s 741 mmHg 80%
02:00 +10°C° 0 mm 2 m/s 741 mmHg 83%
03:00 +10°C° 0 mm 2 m/s 741 mmHg 85%
04:00 +10°C° 0 mm 2 m/s 741 mmHg 88%
05:00 +10°C° 0 mm 2 m/s 740 mmHg 91%
06:00 +12°C° 0.1 mm 2 m/s 741 mmHg 88%
07:00 +11°C° 0.1 mm 3 m/s 741 mmHg 85%
08:00 +12°C° 0 mm 3 m/s 741 mmHg 83%
09:00 +13°C° 0.1 mm 3 m/s 741 mmHg 76%
10:00 +14°C° 0.1 mm 3 m/s 741 mmHg 69%
11:00 +17°C° 0.1 mm 4 m/s 741 mmHg 62%
12:00 +17°C° 0.2 mm 3 m/s 741 mmHg 60%
13:00 +17°C° 0.2 mm 3 m/s 741 mmHg 59%
14:00 +17°C° 0 mm 3 m/s 741 mmHg 57%
15:00 +16°C° 0.2 mm 3 m/s 741 mmHg 63%
16:00 +15°C° 0.2 mm 2 m/s 741 mmHg 69%
17:00 +14°C° 0.2 mm 2 m/s 741 mmHg 76%
18:00 +12°C° 0.1 mm 3 m/s 741 mmHg 80%
19:00 +10°C° 0.1 mm 3 m/s 742 mmHg 85%
20:00 +9°C° 0.1 mm 3 m/s 742 mmHg 89%
21:00 +8°C° 0.2 mm 3 m/s 742 mmHg 90%
22:00 +8°C° 0.2 mm 3 m/s 742 mmHg 91%
23:00 +6°C° 0.2 mm 4 m/s 742 mmHg 92%

Demain, 15 Avril, Jeudi

Heure Température Précipitation Vent Pression Humidité
00:00 +7°C° 0 mm 3 m/s 742 mmHg 92%
01:00 +5°C° 0 mm 3 m/s 742 mmHg 93%
02:00 +5°C° 0 mm 3 m/s 742 mmHg 93%
03:00 +5°C° 0 mm 3 m/s 742 mmHg 93%
04:00 +5°C° 0 mm 4 m/s 743 mmHg 93%
05:00 +5°C° 0 mm 4 m/s 743 mmHg 93%
06:00 +5°C° 0.1 mm 4 m/s 743 mmHg 91%
07:00 +5°C° 0.1 mm 4 m/s 743 mmHg 90%
08:00 +5°C° 0.1 mm 4 m/s 743 mmHg 89%
09:00 +5°C° 0 mm 4 m/s 743 mmHg 87%
10:00 +6°C° 0 mm 4 m/s 743 mmHg 85%
11:00 +6°C° 0 mm 4 m/s 743 mmHg 83%
12:00 +6°C° 0 mm 4 m/s 744 mmHg 83%
13:00 +6°C° 0 mm 5 m/s 744 mmHg 83%
14:00 +6°C° 0 mm 5 m/s 744 mmHg 83%
15:00 +6°C° 0.1 mm 5 m/s 744 mmHg 82%
16:00 +6°C° 0.1 mm 5 m/s 744 mmHg 81%
17:00 +5°C° 0.1 mm 5 m/s 744 mmHg 80%
18:00 +5°C° 0 mm 5 m/s 744 mmHg 82%
19:00 +5°C° 0 mm 5 m/s 744 mmHg 83%
20:00 +3°C° 0 mm 5 m/s 744 mmHg 84%
21:00 +3°C° 0 mm 5 m/s 744 mmHg 85%
22:00 +3°C° 0 mm 5 m/s 744 mmHg 86%
23:00 +3°C° 0 mm 5 m/s 744 mmHg 86%

Après-demain, 16 Avril, Vendredi

Heure Température Précipitation Vent Pression Humidité
00:00 +3°C° 0 mm 5 m/s 744 mmHg 87%
01:00 +2°C° 0 mm 5 m/s 744 mmHg 87%
02:00 +2°C° 0 mm 5 m/s 745 mmHg 87%
03:00 +2°C° 0 mm 5 m/s 745 mmHg 88%
04:00 +2°C° 0 mm 5 m/s 745 mmHg 88%
05:00 +1°C° 0 mm 5 m/s 745 mmHg 89%
06:00 +2°C° 0 mm 5 m/s 745 mmHg 87%
07:00 +3°C° 0 mm 5 m/s 745 mmHg 84%
08:00 +4°C° 0 mm 4 m/s 745 mmHg 82%
09:00 +6°C° 0 mm 5 m/s 746 mmHg 78%
10:00 +7°C° 0 mm 5 m/s 746 mmHg 73%
11:00 +8°C° 0 mm 5 m/s 746 mmHg 69%
12:00 +9°C° 0 mm 5 m/s 746 mmHg 67%
13:00 +10°C° 0 mm 5 m/s 746 mmHg 64%
14:00 +12°C° 0 mm 5 m/s 746 mmHg 62%
15:00 +10°C° 0 mm 5 m/s 746 mmHg 63%
16:00 +10°C° 0 mm 5 m/s 746 mmHg 63%
17:00 +9°C° 0 mm 5 m/s 746 mmHg 64%
18:00 +8°C° 0 mm 5 m/s 746 mmHg 66%
19:00 +8°C° 0 mm 4 m/s 747 mmHg 67%
20:00 +7°C° 0 mm 4 m/s 747 mmHg 68%
21:00 +6°C° 0 mm 4 m/s 747 mmHg 67%
22:00 +5°C° 0 mm 4 m/s 747 mmHg 67%
23:00 +4°C° 0 mm 4 m/s 747 mmHg 66%

17 Avril, Samedi

Heure Température Précipitation Vent Pression Humidité
00:00 +4°C° 0 mm 4 m/s 747 mmHg 68%
01:00 +3°C° 0 mm 4 m/s 747 mmHg 71%
02:00 +3°C° 0 mm 4 m/s 747 mmHg 73%
03:00 +3°C° 0 mm 4 m/s 747 mmHg 74%
04:00 +1°C° 0 mm 4 m/s 748 mmHg 75%
05:00 +1°C° 0 mm 4 m/s 748 mmHg 76%
06:00 +3°C° 0 mm 4 m/s 748 mmHg 71%
07:00 +4°C° 0 mm 4 m/s 748 mmHg 66%
08:00 +6°C° 0 mm 5 m/s 748 mmHg 61%
09:00 +7°C° 0 mm 5 m/s 748 mmHg 58%
10:00 +8°C° 0 mm 5 m/s 749 mmHg 54%
11:00 +10°C° 0 mm 5 m/s 749 mmHg 50%
12:00 +10°C° 0 mm 5 m/s 749 mmHg 48%
13:00 +12°C° 0 mm 5 m/s 749 mmHg 46%
14:00 +13°C° 0 mm 5 m/s 749 mmHg 44%
15:00 +12°C° 0 mm 5 m/s 749 mmHg 44%
16:00 +12°C° 0 mm 4 m/s 749 mmHg 44%
17:00 +11°C° 0 mm 4 m/s 749 mmHg 44%
18:00 +10°C° 0 mm 4 m/s 749 mmHg 50%
19:00 +8°C° 0 mm 3 m/s 749 mmHg 56%
20:00 +5°C° 0 mm 3 m/s 749 mmHg 63%
21:00 +4°C° 0 mm 3 m/s 750 mmHg 67%
22:00 +5°C° 0 mm 2 m/s 750 mmHg 71%
23:00 +4°C° 0 mm 2 m/s 750 mmHg 75%

18 Avril, Dimanche

Heure Température Précipitation Vent Pression Humidité
00:00 +3°C° 0 mm 2 m/s 750 mmHg 76%
01:00 +3°C° 0 mm 2 m/s 750 mmHg 78%
02:00 +2°C° 0 mm 2 m/s 750 mmHg 80%
03:00 +2°C° 0 mm 2 m/s 750 mmHg 81%
04:00 +2°C° 0 mm 2 m/s 751 mmHg 82%
05:00 +2°C° 0 mm 2 m/s 751 mmHg 84%
06:00 +3°C° 0 mm 2 m/s 751 mmHg 75%
07:00 +4°C° 0 mm 3 m/s 751 mmHg 67%
08:00 +7°C° 0 mm 3 m/s 751 mmHg 59%
09:00 +9°C° 0 mm 3 m/s 751 mmHg 53%
10:00 +10°C° 0 mm 3 m/s 751 mmHg 48%
11:00 +11°C° 0 mm 3 m/s 751 mmHg 42%
12:00 +12°C° 0 mm 3 m/s 751 mmHg 40%
13:00 +12°C° 0 mm 3 m/s 751 mmHg 38%
14:00 +13°C° 0 mm 3 m/s 751 mmHg 36%
15:00 +12°C° 0 mm 3 m/s 751 mmHg 38%
16:00 +12°C° 0 mm 3 m/s 751 mmHg 41%
17:00 +11°C° 0 mm 3 m/s 751 mmHg 43%
18:00 +10°C° 0 mm 2 m/s 751 mmHg 51%
19:00 +8°C° 0 mm 2 m/s 751 mmHg 58%
20:00 +6°C° 0 mm 2 m/s 751 mmHg 65%
21:00 +5°C° 0 mm 2 m/s 751 mmHg 68%
22:00 +5°C° 0 mm 2 m/s 751 mmHg 71%
23:00 +4°C° 0 mm 2 m/s 752 mmHg 75%

19 Avril, Lundi

Heure Température Précipitation Vent Pression Humidité
00:00 +4°C° 0 mm 2 m/s 752 mmHg 77%
01:00 +4°C° 0 mm 1 m/s 752 mmHg 79%
02:00 +4°C° 0 mm 1 m/s 752 mmHg 81%
03:00 +4°C° 0 mm 1 m/s 752 mmHg 82%
04:00 +4°C° 0 mm 1 m/s 752 mmHg 83%
05:00 +4°C° 0 mm 1 m/s 753 mmHg 85%
06:00 +4°C° 0 mm 2 m/s 753 mmHg 77%
07:00 +6°C° 0 mm 2 m/s 753 mmHg 69%
08:00 +8°C° 0 mm 2 m/s 753 mmHg 62%
09:00 +10°C° 0 mm 3 m/s 753 mmHg 56%
10:00 +11°C° 0 mm 3 m/s 753 mmHg 51%
11:00 +12°C° 0 mm 4 m/s 753 mmHg 46%
12:00 +12°C° 0 mm 3 m/s 753 mmHg 48%
13:00 +11°C° 0 mm 3 m/s 753 mmHg 50%
14:00 +12°C° 0 mm 2 m/s 753 mmHg 52%
15:00 +12°C° 0 mm 2 m/s 752 mmHg 53%
16:00 +12°C° 0 mm 2 m/s 752 mmHg 54%
17:00 +10°C° 0 mm 2 m/s 752 mmHg 55%
18:00 +10°C° 0 mm 2 m/s 752 mmHg 58%
19:00 +9°C° 0 mm 2 m/s 752 mmHg 61%
20:00 +8°C° 0 mm 2 m/s 752 mmHg 65%
21:00 +8°C° 0 mm 2 m/s 752 mmHg 65%
22:00 +7°C° 0 mm 2 m/s 752 mmHg 65%
23:00 +7°C° 0 mm 3 m/s 752 mmHg 66%
Voir plus

Nous avons besoin de votre consentement

Meteoprog et ses fournisseurs de services peuvent stocker et accéder à des données personnelles telles que des cookies, des identifiants d'appareils ou d'autres technologies similaires sur votre appareil et traiter ces données pour personnaliser le contenu et les publicités, ainsi que pour fournir des fonctionnalités de médias sociaux et analyser le trafic.

  • Stocker et/ou accéder à des informations sur votre appareil

    Des cookies, des identifiants d'appareils ou d'autres informations peuvent être stockés ou accessibles sur votre appareil aux fins indiquées ci-dessus.

  • Annonces et contenus personnalisés, mesure des annonces et des contenus, connaissance de l'audience et développement de produits

    Les annonces et le contenu peuvent être personnalisés en fonction d'un profil. D'autres données peuvent être ajoutées pour mieux personnaliser les annonces et le contenu. Les performances des publicités et du contenu peuvent être mesurées. Il est possible d'obtenir des informations sur le public qui a vu les publicités et le contenu. Ces données peuvent être utilisées pour développer ou améliorer l'expérience de l'utilisateur, les systèmes et les logiciels.

En cliquant sur "J'accepte", vous autorisez l'utilisation de cookies, des identifiants d'appareils, des balises web ou d'autres technologies similaires. Vos paramètres peuvent être modifiés dans le navigateur de votre appareil.

Dans certains cas, des intérêts légitimes peuvent être invoqués plutôt qu'un consentement. Vous pouvez en savoir plus à ce sujet dans notre Politique de confidentialité et de cookies.